Regional Weather Roundup
Issued by NWS Newport/Morehead, NC

Current Version | Previous Version | Graphics & Text | Print | Product List | Glossary On
Versions: 1 2 3 4 5 6 7 8 9 10 11 12 13 14 15 16 17 18 19 20 21 22 23 24 25 26 27 28 29 30 31 32 33 34 35 36 37 38 39 40 41 42 43 44 45 46 47 48 49 50
000 ASUS42 KMHX 110013 RWRMHX WEATHER ROUNDUP FOR EASTERN NORTH CAROLINA NATIONAL WEATHER SERVICE NEWPORT/MOREHEAD CITY NC 700 PM EST SUN DEC 10 2017 NOTE: "FAIR" INDICATES FEW OR NO CLOUDS BELOW 12,000 FEET WITH NO SIGNIFICANT WEATHER AND/OR OBSTRUCTIONS TO VISIBILITY NCZ015>017-031-032-045>047-102-103-110100- NORTH COAST CITY SKY/WX TMP DP RH WIND PRES REMARKS EDENTON CLEAR 42 29 61 W5 30.17R ELIZABETH CITY CLEAR 36 30 79 SW5 30.17R KITTY HAWK CLEAR 39 25 57 CALM 30.14S MANTEO CLEAR 40 28 61 W7 30.17R $$ NCZ045>047-081-094-103-104-110100- CENTRAL COAST CITY SKY/WX TMP DP RH WIND PRES REMARKS FRISCO CLEAR 40 30 67 W7 30.18R $$ NCZ095-097-098-100-101-110100- SOUTHERN COAST CITY SKY/WX TMP DP RH WIND PRES REMARKS BEAUFORT CLEAR 39 29 67 W6 30.20R CEDAR ISLAND NOT AVBL JACKSONVILLE CLEAR 33 32 96 S3 30.20R PINEY ISLAND N/A N/A N/A N/A SW8 30.19R WILMINGTON CLEAR 36 31 82 CALM 30.21R $$ NCZ011>013-027>030-043-044-078>080-089-090>093-098-110100- COASTAL PLAIN CITY SKY/WX TMP DP RH WIND PRES REMARKS AHOSKIE CLEAR 31 28 90 CALM 30.17R CLINTON CLEAR 33 30 86 CALM 30.19R ELIZABETHTOWN NOT AVBL GOLDSBORO CLEAR 33 27 79 CALM 30.16R GREENVILLE CLEAR 32 28 86 CALM 30.18S HAVELOCK CLEAR 34 31 88 CALM 30.20R KENANSVILLE CLEAR 30 28 93 CALM 30.19R KINSTON CLEAR N/A N/A N/A CALM 30.19R NEW BERN CLEAR 32 30 92 CALM 30.20R RICHLANDS CLEAR 30 27 88 CALM 30.20R ROCKY MOUNT CLEAR 30 29 96 CALM 30.16R WASHINGTON CLEAR 35 28 78 CALM 30.18R WHITEVILLE CLEAR 36 32 84 CALM 30.20R $$ AMZ130-135-150-152-154-156-158-170-250-252-270-ANZ085-086-088-633-658-670-110100- MARINE OBSERVATIONS STATION/POSITION TIME TEMP WIND PRES WAVE SWELL AIR SEA DIR/SP/G HT/PER HT/PER (UTC) (F) (DEG/KT/KT) (MB) (FT/S) (FT/S) CHESAPEAKE LIGHT NOT AVBL 64 E VA BEACH 2350 45 60 250/ 12/ 17 1020.8 5/ 8 3/ 8 DUCK 2336 42 53 280/ 10/ 12 1020.5 2 E DUCK 0000 54 N/A 2/ 9 OREGON INLET 2336 42 49 260/ 9/ 13 1021.3 13E OREGON INLT 2348 57 N/A 4/ 8 3/ 8 HATTERAS CG 2336 42 53 260/ 8/ 10 1021.4 DIAMOND BUOY 0000 46 69 280/ 10/ 16 1022.0 CAPE LOOKOUT 0000 280/ 8/ 9 1022.6 BEAUFORT LAB 2336 42 51 290/ 3/ 6 1022.3 30 SE NEW RVR IN 2308 47 66 280/ 8/ 12 1022.3 30 SE NEW RVR IN 0000 67 N/A 3/ 8 27 SE WRIGHTSVLE 2308 47 66 290/ 8/ 16 1022.2 5 SE WRIGHTSVLE 2308 46 58 270/ 8/ 12 1021.9 225 S CAPE HAT 2350 58 76 330/ 8/ 14 1022.2 8/ 8 7/ 8 41 SE CHARLESTON 0000 73 240/ 10/ 14 1023.4 $$

USA.gov is the U.S. government's official web portal to all federal, state and local government web resources and services.